WetterOnline ( https://www.wetteronline.de )

Wetter aktuell Waren (Müritz)

Aktuelles Wetter: Waren (71m)

6-stündlich | Neueste Meldungen
Ortszeit Temperatur Wetter
Di, 18.06. 20:00 18.4° C leichter Regen
Di, 18.06. 14:00 21.5° C fast wolkenlos
Di, 18.06. 8:00 16.7° C leicht bewölkt
Di, 18.06. 2:00 14.7° C wolkig
Mo, 17.06. 20:00 15.8° C starker Regen
Mo, 17.06. 14:00 20.9° C wolkig
Mo, 17.06. 8:00 17.7° C leicht bewölkt
Mo, 17.06. 2:00 15.7° C bewölkt
Ortszeit Temperatur Wetter
Di, 18.06. 20:00 18.4° C leichter Regen
Di, 18.06. 19:40 18.9° C leichter Regen
Di, 18.06. 19:30 20.4° C bedeckt
Di, 18.06. 19:20 20.4° C bedeckt
Di, 18.06. 19:10 20.7° C leichter Regen
Di, 18.06. 19:00 21.2° C bewölkt
Di, 18.06. 18:50 21.2° C bewölkt
Di, 18.06. 18:30 21.8° C bedeckt
Di, 18.06. 18:00 22.5° C bewölkt
Di, 18.06. 17:30 22.8° C bedeckt
Di, 18.06. 17:00 22.7° C bewölkt
Ortszeit Relative Feuchte Sichtweite
Di, 18.06. 20:00 80% 14 km
Di, 18.06. 14:00 53% 60 km
Di, 18.06. 8:00 86% 60 km
Di, 18.06. 2:00 95% 55 km
Mo, 17.06. 20:00 91% 4.2 km
Mo, 17.06. 14:00 65% 35 km
Mo, 17.06. 8:00 70% 60 km
Mo, 17.06. 2:00 81% >70 km
Ortszeit Relative Feuchte Sichtweite
Di, 18.06. 20:00 80% 14 km
Di, 18.06. 19:40 76% -
Di, 18.06. 19:30 65% >70 km
Di, 18.06. 19:20 65% -
Di, 18.06. 19:10 63% -
Di, 18.06. 19:00 59% 65 km
Di, 18.06. 18:50 59% -
Di, 18.06. 18:30 56% 65 km
Di, 18.06. 18:00 52% 65 km
Di, 18.06. 17:30 47% 55 km
Di, 18.06. 17:00 48% >70 km
Ortszeit Niederschlagsmenge Niederschlagsart
Di, 18.06. 20:00 1 l/m2 in 12 Std. Regen
Di, 18.06. 14:00 0.0 l/m2 in 6 Std. -
Di, 18.06. 8:00 3 l/m2 in 12 Std. Sprühregen
Di, 18.06. 2:00 3 l/m2 in 6 Std. Regen
Mo, 17.06. 20:00 14 l/m2 in 12 Std. Regen
Mo, 17.06. 14:00 0.1 l/m2 in 6 Std. Regen
Mo, 17.06. 8:00 0.1 l/m2 in 12 Std. -
Mo, 17.06. 2:00 0.1 l/m2 in 6 Std. Regen
Ortszeit Niederschlagsmenge Niederschlagsart
Di, 18.06. 20:00 1.0 l/m2 in 1 Std. Regen
Di, 18.06. 19:40 keine Meldung -
Di, 18.06. 19:30 <0.05 l/m2 in 30 Min Schneeregen
Di, 18.06. 19:20 keine Meldung -
Di, 18.06. 19:10 keine Meldung -
Di, 18.06. 19:00 0.0 l/m2 in 1 Std. -
Di, 18.06. 18:50 keine Meldung -
Di, 18.06. 18:30 0.0 l/m2 in 30 Min -
Di, 18.06. 18:00 0.0 l/m2 in 1 Std. -
Di, 18.06. 17:30 0.0 l/m2 in 30 Min -
Di, 18.06. 17:00 0.0 l/m2 in 1 Std. -
Ortszeit Stärke Spitze Richtung
km/h Bft. km/h Grad Sektor
Di, 18.06. 20:00 7 2 18 40° NO
Di, 18.06. 14:00 11 2 22 160° S
Di, 18.06. 8:00 7 2 14 270° W
Di, 18.06. 2:00 7 2 18 210° SW
Mo, 17.06. 20:00 7 2 32 330° NW
Mo, 17.06. 14:00 13 3 28 190° S
Mo, 17.06. 8:00 6 1 17 190° S
Mo, 17.06. 2:00 4 1 22 110° O
Ortszeit Stärke Spitze Richtung
km/h Bft. km/h Grad Sektor
Di, 18.06. 20:00 7 2 18 40° NO
Di, 18.06. 19:40 9 2 - 50° NO
Di, 18.06. 19:30 11 2 18 50° NO
Di, 18.06. 19:20 11 2 - 50° NO
Di, 18.06. 19:10 11 2 - 50° NO
Di, 18.06. 19:00 9 2 19 50° NO
Di, 18.06. 18:50 9 2 - 50° NO
Di, 18.06. 18:30 11 2 18 50° NO
Di, 18.06. 18:00 2 1 7 190° S
Di, 18.06. 17:30 0 0 7 - -
Di, 18.06. 17:00 4 1 11 180° S
Ortszeit Untergrenze Bedeckung Gattung
total tief tief mittel hoch
Di, 18.06. 20:00 1410 m 7/8 7/8 - - -
Di, 18.06. 14:00 1800 m 1/8 1/8 - - -
Di, 18.06. 8:00 8700 m 5/8 0/8 - - -
Di, 18.06. 2:00 6600 m 6/8 5/8 - - -
Mo, 17.06. 20:00 90 m 7/8 7/8 - - -
Mo, 17.06. 14:00 1200 m 6/8 3/8 - - -
Mo, 17.06. 8:00 4500 m 4/8 3/8 - - -
Mo, 17.06. 2:00 1800 m 7/8 7/8 - - -
Ortszeit Bedeckungsgrad in Achtel und Wolkenuntergrenze
Di, 18.06. 20:00 7(1410m) 7(1800m)
Di, 18.06. 19:40 8
Di, 18.06. 19:30 7(2100m) 8(2700m)
Di, 18.06. 19:20 7(2100m) 8(2700m)
Di, 18.06. 19:10 7
Di, 18.06. 19:00 6(2400m) 6(3300m) 7(3900m)
Di, 18.06. 18:50 6(2400m) 6(3300m) 7(3900m)
Di, 18.06. 18:30 8(2700m)
Di, 18.06. 18:00 7(3000m) 7(4800m)
Di, 18.06. 17:30 8(5100m)
Di, 18.06. 17:00 3(3300m) 3(3900m) 7(5400m)
Ortszeit Luftdruck NN (hPa) Tendenz (hPa in 3 Std.)
Di, 18.06. 20:00 1012 - 2,0
Di, 18.06. 14:00 1015 - 0,8
Di, 18.06. 8:00 1015 + 0,7
Di, 18.06. 2:00 1015 + 1,1
Mo, 17.06. 20:00 1013 + 1,3
Mo, 17.06. 14:00 1011 + 0,2
Mo, 17.06. 8:00 1011 + 0,4
Mo, 17.06. 2:00 1010 + 0,5
Ortszeit Luftdruck NN (hPa) Tendenz (hPa in 3 Std.)
Di, 18.06. 20:00 1012 - 2,0
Di, 18.06. 19:40 1012 keine Meldung
Di, 18.06. 19:30 1012 - 2,3
Di, 18.06. 19:20 1012 keine Meldung
Di, 18.06. 19:10 1012 keine Meldung
Di, 18.06. 19:00 1012 - 2,2
Di, 18.06. 18:50 1012 keine Meldung
Di, 18.06. 18:30 1013 - 1,9
Di, 18.06. 18:00 1013 - 1,8
Di, 18.06. 17:30 1013 - 1,7
Di, 18.06. 17:00 1014 - 1,4
Ortszeit Schneehöhe (cm)
Di, 18.06. 20:00 0
Di, 18.06. 14:00 0
Di, 18.06. 8:00 0
Di, 18.06. 2:00 0
Mo, 17.06. 20:00 0
Mo, 17.06. 14:00 0
Mo, 17.06. 8:00 0
Mo, 17.06. 2:00 0
Ortszeit Schneehöhe (cm)
Di, 18.06. 20:00 0
Di, 18.06. 19:40 -
Di, 18.06. 19:30 0
Di, 18.06. 19:20 0
Di, 18.06. 19:10 -
Di, 18.06. 19:00 0
Di, 18.06. 18:50 0
Di, 18.06. 18:30 0
Di, 18.06. 18:00 0
Di, 18.06. 17:30 0
Di, 18.06. 17:00 0
Link zu dieser Seite / Seite empfehlen

Das Wetter in ...